Regional Weather Roundup
Issued by NWS State College, PA

Home | Current Version | Previous Version | Graphics & Text | Print | Product List | Glossary On
Versions: 1 2 3 4 5 6 7 8 9 10 11 12 13 14 15 16 17 18 19 20 21 22 23 24 25 26 27 28 29 30 31 32 33 34 35 36 37 38 39 40 41 42 43 44 45 46 47 48 49 50
630
ASUS41 KCTP 232203
RWRCTP

REGIONAL WEATHER ROUNDUP
NATIONAL WEATHER SERVICE STATE COLLEGE PA
600 PM EDT TUE MAY 23 2017

Note: "fair" indicates few or no clouds below 12,000 feet with no
significant weather and/or obstructions to visibility.

* = STATION THAT DOES NOT REPORT PRECIPITATION /E.G. RAIN...SNOW...ETC/
    THUNDER OR FOG.

PAZ002>004-007>009-013>016-020>023-029>032-232300-
WESTERN PENNSYLVANIA

CITY           SKY/WX    TMP DP  RH WIND       PRES   REMARKS
ERIE           CLOUDY    68  48  48 N7        29.76F
MEADVILLE      CLOUDY    72  39  30 VRB7      29.76F
FRANKLIN*      CLOUDY    70  43  37 SE10      29.78F
NEW CASTLE     FAIR      72  46  39 SE8       29.76F
BEAVER COUNTY  SUNNY     70  46  43 SE7       29.76
BUTLER*        MOSUNNY   70  48  46 E7        29.77F
PITTSBURGH INT CLOUDY    71  50  47 SE7       29.75F
PITTSBURGH     MOSUNNY   70  47  43 SE7       29.76F
INDIANA*       NOT AVBL
LATROBE        PTSUNNY   66  50  55 S9        29.80S
WASHINGTON CO* PTSUNNY   68  52  56 SE9       29.78F
$$

PAZ004>006-010>012-017>019-024>028-033>037-041-042-045-046-049>053-232300-
CENTRAL PENNSYLVANIA

CITY           SKY/WX    TMP DP  RH WIND       PRES   REMARKS
BRADFORD       CLOUDY    69  42  37 SE9       29.80F
DUBOIS         CLOUDY    67  42  40 SE8       29.80F
CLEARFIELD     CLOUDY    67  40  37 SE6       29.82F
JOHNSTOWN      CLOUDY    61  46  57 SE8       29.83S
ALTOONA        PTSUNNY   65  47  52 S9        29.84S
STATE COLLEGE  SUNNY     66  45  45 CALM      29.83F
WILLIAMSPORT   MOSUNNY   69  47  45 E3        29.81F
SELINSGROVE    CLOUDY    68  46  45 S6        29.84F
FT INDIANTOWN  CLOUDY    64  50  60 E3        29.84F
CAPITAL CITY   CLOUDY    66  48  52 E5        29.84F
HARRISBURG     CLOUDY    66  54  65 CALM      29.83F
YORK           CLOUDY    64  52  64 SE5       29.84F
$$

PAZ038>040-043-044-047-048-054-055-060>062-067>071-232300-
EASTERN PENNSYLVANIA

CITY           SKY/WX    TMP DP  RH WIND       PRES   REMARKS
SCRANTON       CLOUDY    69  44  40 E6        29.83F
MOUNT POCONO   CLOUDY    60  45  57 SE6       29.86F
ALLENTOWN      CLOUDY    67  49  52 S3        29.84F
QUAKERTOWN*    CLOUDY    64  50  59 SE3       29.85F
READING        CLOUDY    66  52  60 SE5       29.83F
LANCASTER      CLOUDY    65  55  70 E3        29.84F
COATESVILLE    CLOUDY    63  55  77 E3        29.86F
POTTSTOWN      CLOUDY    64  54  69 N5        29.86F
BLUE BELL      CLOUDY    63  54  72 CALM      29.85F
DOYLESTOWN     CLOUDY    63  53  70 CALM      29.84F
WILLOW GROVE   NOT AVBL
NORTH PHILA    CLOUDY    66  51  58 SE3       29.85F
PHILADELPHIA   CLOUDY    66  52  60 E6        29.83F
$$




USA.gov is the U.S. government's official web portal to all federal, state and local government web resources and services.